Simultaneous Nadir Overpasses (SNOs) Predictions

Prediction of SNOs between METOP-A and TERRA Satellite Orbit:

Table of predicted SNOs for the next 14.0 days since TLE Epoch: 3/5/2016
Index Date (METOP-A) Time (METOP-A) Lat,Lon (METOP-A) SZA (METOP-A ) Date (TERRA) Time (TERRA) Lat,Lon (TERRA) SZA (TERRA ) Distance(km) Time Diff (sec)
1 03/07/2016 03:09:41 81.30, 179.47 88.84 03/07/2016 03:10:38 81.30, 179.47 88.87 0.65 57
2 03/07/2016 04:00:21 -81.30, -12.82 91.13 03/07/2016 04:00:05 -81.30, -12.97 91.16 2.57 16
3 03/09/2016 22:44:05 81.30,-114.29 87.75 03/09/2016 22:44:54 81.30,-114.18 87.79 1.97 49
4 03/09/2016 23:34:45 -81.30, 53.46 92.22 03/09/2016 23:34:21 -81.30, 53.43 92.24 0.76 24
5 03/12/2016 18:18:29 81.30, -47.69 86.69 03/12/2016 18:19:13 81.30, -47.67 86.72 0.71 44
6 03/12/2016 19:09:09 -81.30, 120.11 93.27 03/12/2016 19:08:40 -81.30, 119.97 93.30 2.34 29
7 03/15/2016 13:52:54 81.30, 18.49 85.58 03/15/2016 13:53:35 81.30, 18.60 85.61 1.82 41
8 03/15/2016 14:43:34 -81.30,-173.66 94.37 03/15/2016 14:43:02 -81.30,-173.71 94.40 0.88 32
9 03/18/2016 09:27:17 81.30, 85.05 84.52 03/18/2016 09:27:58 81.30, 85.03 84.53 0.31 41




NCC Satellite Simultaneous Nadir Overpasses (SNOs) Prediction Service
